BRASILSAT B2

Last updated on Thu Jul 05 2018 00:20:01 GMT+0000 (Coordinated Universal Time)

1 23536U 95016A 18185.58773492 -.00000028 00000-0 00000-0 0 9999 2 23536 7.6129 49.2636 0001237 170.9339 179.2119 0.99236249 85266
UTC large
Height (km)
Speed (km/s)
/
Latitude / Longitude
Inclination (degrees)
Orbital Period (minutes)
Azimuth
Elevation
Range (km)
Doppler Factor

Next 0 passes for location: London (51.5072 / 0.1276)

Sorry there are no passes over London.